STARLINK-32547, 61919

Orbit data source: Space-Track

STARLINK-32547, 61919 is a payload satellite owned by SpaceX/Seattle (US) in LEO that was launched on Mon, 11 Nov 2024 UTC via an FALCON 9 launch vehicle from the Air Force Eastern Test Range (AFETR). Payload-class satellites include a variety of spacecraft equipped with specific instruments for various scientific and technological missions. These include communications satellites like Starlink; space stations such as the ISS; scientific satellites like the Hubble; Earth observation satellites from companies like Planet Labs, Umbra, and HawkEye 360; GPS; miniature CubeSats for education and research; and military/defense satellites.

Loading next visibility...
Identifier
61919, 2024-207H
Orbit
LEO
Last TLE update
15 hours ago
Origin
Manufacturer
SpaceX/Seattle
Mission
Operational Commercial Communications
Bus & Motor
STARLINK V2M, Unknown motor
Mass
730 kg wet, ~700 kg dry
Launch date (UTC)
2024-11-11 (8 months ago)
Launch vehicle
FALCON 9
Launch site
Air Force Eastern Test Range (AFETR)
Object type
Payload
Rocket body
Debris
Shape & HBR
Box + 2 Pan, 29 m
Radar Cross Section
36.964 m², Large (>1 m²)

Expand to show TLE details & history

TLE from 15 hours ago
0 STARLINK-32547
1 61919U 24207H   25186.18163141  .00015964  00000-0  58840-3 0  9991
2 61919  42.9985 239.1279 0001536 270.5851  89.4825 15.27579179 36863
Epoch: 2025-07-05T04:21Z
TLE epoch observation values (Epoch: 2025-07-05T04:21:32.953Z)
Latitude
-0.00001°
Longitude
-109.68277°
Altitude
482.817 km
Speed
7.626 km/s
True Right ascension
15h 56m 30s
True Declination
0° 00' 00"
Sunlit
Object was in full shadow at epoch
Visualization orbit readout
Latitude
-8.42822°
Longitude
75.88719°
Altitude
484.103 km
Speed
7.625 km/s
Apparent Right ascension
01h 14m 02s
Apparent Declination
-47° 03' 43"
Sunlit
Object is in daylight
Visualization observer readout
Local Sidereal Time
07:14:53
Azimuth
230.584° WSW
Elevation
-28.145°
Doppler factor
1
Orbital elements
Apogee altitude
486.051 km
Perigee altitude
483.943 km
Semi-major axis
6,863.134 km
Eccentricity
0.00015
Inclination
42.9985°
RAAN
239.1279°
Arg. of periapsis
270.5851°
True anomaly
Unknown
Mean anomaly
89.4825°
Eccentric anomaly
Unknown
Mean motion
3.81733 °/min
Orbital period
94.31 mins
BSTAR
0.0005884
Loading maneuver chart data...
Loading SW <> Apogee altitude chart data...
Loading historical data...
Loading historical data...
Loading historical data...
Loading historical data...
Loading historical data...
Loading historical data...
Loading historical data...

STARLINK-32547 Visibility forecast

Observer location: undefined°, undefined°

Span
Click to sort rows by Start time (UTC) header in descending order
Start Az.
Max El. time (UTC)
Max El. Az.
Max El.
End time (UTC)
End Az.
5 mins2025-07-06 07:17:13.128Z231.623° WSW2025-07-06 07:19:13.128Z148.343° SSE42.146°2025-07-06 07:22:13.128Z76.469° E
5 mins2025-07-06 08:56:13.128Z285.245° WNW2025-07-06 08:58:13.128Z357.089° N39.117°2025-07-06 09:01:13.128Z70.337° E
5 mins2025-07-06 10:35:13.128Z294.816° NW2025-07-06 10:37:13.128Z353.599° N41.933°2025-07-06 10:40:13.128Z92.41° ESE
5 mins2025-07-06 12:14:13.128Z266.912° W2025-07-06 12:16:13.128Z210.382° SW32.727°2025-07-06 12:19:13.128Z141.798° SSE
|